GFSGBSN_925_temp_276.txt.gz
Temp
11 11 10 10 9 9 9 9 9 9 9 9 10 10 10 10 12 15 18 18 19 20 21 21 22 21 23 30 34 33 32 32 32 32 34 37 38 39 39 40 40 40 37 39 40 40 40
11 10 10 9 9 9 9 9 9 9 9 9 9 9 10 10 12 16 18 19 20 21 21 22 22 21 22 31 36 34 34 34 35 34 36 37 38 40 40 40 39 40 38 39 40 40 41
10 10 10 9 10 10 9 9 9 9 9 9 9 9 10 11 14 16 18 19 21 22 22 22 22 20 27 32 35 36 35 35 36 37 37 38 39 40 40 40 41 40 39 40 38 40 40
10 10 10 9 10 9 9 9 9 9 9 9 9 10 10 12 15 17 19 20 21 22 22 22 22 21 29 35 34 35 35 36 37 37 38 39 40 39 39 41 40 39 39 37 37 39 39
9 9 9 9 9 9 9 9 9 9 9 9 9 10 10 13 16 17 20 21 21 22 22 22 21 26 32 33 34 35 35 37 37 37 38 38 38 38 39 38 38 39 38 38 37 39 39
9 9 9 9 9 9 9 9 9 9 9 9 9 10 11 14 16 18 21 21 20 20 22 21 24 29 32 35 36 36 36 36 38 38 38 38 38 37 38 38 36 37 38 36 38 38 40
9 9 9 9 9 9 9 9 9 9 9 9 9 11 14 16 17 18 20 22 25 25 26 31 33 34 36 37 36 36 37 37 38 38 36 38 36 36 38 39 40 40 38 37 39 40 39
9 9 9 9 9 9 9 9 9 9 9 9 9 12 16 18 19 19 16 27 30 29 29 33 33 35 36 36 35 36 36 36 36 36 37 37 36 38 39 40 40 40 39 39 40 41 40
9 9 9 9 9 9 9 9 9 9 9 9 9 12 17 19 20 20 23 28 27 28 30 34 35 35 36 36 35 37 38 37 36 36 37 36 38 40 39 39 39 39 39 39 39 40 40
9 9 9 9 9 9 9 8 9 9 8 8 8 12 17 19 18 25 28 27 28 28 30 35 34 35 36 36 35 38 38 37 36 36 37 37 39 39 39 38 39 38 41 40 40 38 37
9 9 9 9 9 9 8 8 8 8 8 8 10 14 17 14 15 26 28 27 27 29 30 35 36 36 37 35 37 37 39 37 36 37 37 37 38 38 38 39 40 39 41 40 40 39 38
9 8 8 8 8 8 8 8 8 8 9 10 12 13 16 18 15 23 26 27 28 29 31 35 36 34 35 35 36 38 37 38 38 37 38 38 40 40 39 40 40 40 39 40 40 39 36
8 8 8 8 8 8 8 8 8 8 11 13 14 14 14 14 26 26 27 29 29 30 37 35 35 36 35 35 35 37 36 35 35 34 35 37 38 39 40 38 39 39 38 36 36 36 36
8 8 8 8 8 8 8 8 8 10 12 14 17 17 18 20 24 25 27 29 29 35 36 37 37 37 35 37 36 36 36 35 36 36 36 35 36 38 39 38 37 38 39 37 35 36 37
8 8 8 8 8 8 8 8 9 11 13 15 19 19 20 25 22 25 28 29 32 35 35 35 36 35 35 36 37 36 36 36 37 37 35 36 37 40 39 39 38 37 38 40 38 39 38
8 8 8 8 8 8 9 9 10 12 14 15 15 25 29 27 26 26 28 27 32 34 33 34 32 35 35 37 36 36 36 37 37 38 39 37 36 39 40 40 39 38 40 38 38 35 35
7 8 8 8 8 9 9 9 10 13 16 17 18 28 28 27 27 28 28 32 34 34 33 32 33 34 35 36 37 36 36 38 39 38 39 38 37 37 39 38 37 38 37 38 39 39 36
8 8 8 8 8 8 8 9 10 12 18 19 26 28 28 28 28 30 30 33 22 32 34 32 33 33 33 35 35 35 36 37 39 39 37 38 37 35 37 39 40 39 38 38 37 36 38
8 8 8 8 8 8 8 9 10 11 11 13 26 31 28 29 28 30 33 33 33 32 33 32 32 33 34 34 33 34 36 38 38 37 36 37 36 34 35 38 39 38 38 39 39 39 38
8 8 8 8 8 8 9 10 11 12 12 12 26 30 30 30 30 30 30 32 32 33 32 32 32 33 33 33 34 33 35 37 37 36 29 34 35 35 34 36 38 37 38 38 38 38 38
8 8 8 8 8 8 9 10 13 15 15 13 27 30 31 29 31 31 32 31 31 31 33 32 32 32 32 32 33 33 34 35 35 28 33 35 34 35 36 37 38 38 38 38 37 38 38
9 8 8 8 8 8 9 10 13 16 18 18 27 27 28 29 31 30 29 30 30 31 32 32 31 32 33 32 32 33 34 33 27 28 29 31 33 34 34 36 37 37 38 38 39 38 38
10 10 8 8 8 8 9 9 11 15 18 24 25 25 27 26 30 31 31 31 31 32 32 32 32 31 31 33 34 33 33 32 27 26 24 23 27 27 33 35 35 35 36 38 38 39 39
10 10 9 8 8 8 9 10 10 12 11 15 22 22 25 26 29 30 31 31 30 30 30 31 32 31 32 34 33 33 33 32 26 25 22 20 19 25 33 33 32 36 38 38 38 39 40
10 10 10 9 8 8 8 9 11 13 13 13 18 22 23 25 27 28 30 30 30 30 30 30 30 31 32 31 30 29 30 31 31 31 25 25 23 28 31 31 29 31 37 37 37 37 39
10 10 10 10 9 8 9 9 11 12 13 13 18 19 21 23 26 26 27 28 28 29 29 31 33 33 32 30 30 28 29 30 31 30 31 30 29 29 29 26 27 29 31 32 38 36 39
11 11 10 10 10 10 10 9 11 12 12 10 15 18 19 21 25 27 27 26 27 28 28 30 31 31 32 30 29 29 29 29 25 26 25 26 27 29 29 29 29 30 29 31 33 36 40
12 12 11 10 10 10 10 10 10 10 10 10 16 18 18 20 22 23 25 25 26 27 26 28 29 30 30 29 29 29 30 21 20 21 22 24 26 22 24 28 28 27 29 29 25 33 39
12 12 12 12 10 10 10 8 8 8 8 9 15 18 17 17 20 20 20 21 23 24 26 27 28 28 30 29 30 30 28 23 22 21 26 25 21 21 21 28 25 25 24 23 24 33 36

GFSGBSN_925_temp_279.txt.gz
Temp
10 10 10 9 9 9 9 9 9 9 9 9 9 9 10 12 15 17 19 20 20 20 21 21 22 22 24 24 27 33 33 33 33 32 32 32 32 33 34 37 37 32 35 38 39 39 38
10 10 10 9 10 10 9 9 9 9 9 9 9 9 11 15 17 18 19 20 20 21 22 22 22 21 20 26 34 34 34 33 33 32 33 33 33 35 35 37 38 39 38 38 38 39 39
10 10 10 9 9 9 9 9 9 9 9 9 10 10 12 14 17 18 19 20 21 22 22 22 22 20 23 25 34 34 35 34 35 35 33 36 36 34 35 36 38 39 37 37 38 39 39
9 10 9 9 9 9 9 9 9 9 9 9 10 10 12 15 17 18 20 21 22 22 23 22 21 19 21 32 33 34 34 35 36 36 37 37 37 35 36 36 37 36 37 34 36 37 38
9 9 9 9 9 9 9 9 9 9 9 9 9 10 13 15 17 19 20 21 22 22 23 22 21 20 25 33 33 34 35 35 36 37 37 38 37 35 34 33 32 34 32 35 36 37 37
9 9 9 9 9 9 9 9 9 9 9 9 9 11 13 16 18 19 21 22 22 22 22 20 22 23 26 32 35 35 35 35 34 34 35 35 34 31 31 32 29 32 35 35 35 36 36
9 9 9 9 9 9 9 9 9 9 9 9 10 12 15 17 18 18 20 22 21 21 24 25 27 28 33 33 35 35 36 35 34 33 32 33 31 30 32 34 35 36 36 35 36 36 37
9 9 9 9 9 9 9 9 9 9 9 9 10 14 17 19 19 19 17 18 27 28 25 28 27 29 32 34 34 35 36 33 33 30 32 32 30 33 35 36 36 36 36 36 37 38 36
9 9 9 9 9 9 9 9 9 9 9 9 12 16 18 20 21 21 20 25 28 28 25 29 31 31 31 34 33 32 33 32 32 31 31 30 32 36 35 35 35 35 34 36 37 38 38
9 9 9 9 8 9 8 9 9 9 9 10 13 16 18 21 21 21 25 27 28 29 24 29 31 32 33 34 32 35 35 33 33 31 32 31 34 36 35 35 34 32 37 38 38 35 33
9 8 8 8 8 8 8 8 8 9 10 12 14 16 18 15 16 18 26 28 28 28 24 34 33 36 34 32 33 33 36 34 32 32 33 31 33 34 34 35 36 34 36 36 37 35 34
8 8 8 8 8 8 8 8 9 9 11 13 14 16 18 16 15 25 26 27 28 24 27 34 33 33 33 33 33 35 34 34 34 32 32 32 35 34 34 36 36 38 35 34 34 34 30
8 8 8 8 8 8 9 8 9 10 12 14 16 16 16 15 21 25 26 26 24 25 34 34 32 33 31 32 32 33 32 32 30 30 29 32 33 34 35 33 36 35 34 28 29 29 29
8 8 8 8 8 9 9 9 10 11 13 16 19 19 20 21 23 23 24 24 25 31 33 35 35 33 31 32 32 33 32 30 31 31 30 29 29 33 35 34 33 33 31 27 29 29 31
8 8 8 8 8 9 9 9 10 12 15 16 20 20 19 24 24 24 23 23 28 31 33 33 34 34 33 34 34 33 31 31 32 31 29 30 31 35 36 36 34 32 31 31 31 32 30
8 8 8 8 8 8 8 9 10 13 16 17 18 20 24 25 24 25 23 24 27 31 33 32 30 32 31 32 33 32 31 34 34 34 32 31 30 33 36 36 35 32 33 30 28 30 29
8 8 8 8 9 8 8 9 11 14 18 20 17 23 28 27 26 24 23 27 30 34 33 32 30 30 30 31 32 32 33 35 35 35 33 32 31 32 33 34 32 33 31 32 30 29 28
8 8 8 8 8 9 9 10 11 13 18 19 22 24 28 27 24 25 25 29 29 32 33 31 31 30 30 31 31 31 33 34 36 37 34 34 31 29 31 34 35 34 32 31 27 28 28
8 8 8 8 8 9 9 10 11 12 12 11 21 26 28 28 24 26 28 31 32 32 32 31 31 32 31 30 29 31 32 35 35 36 34 32 28 27 30 31 33 33 33 32 31 30 30
8 8 8 8 8 9 10 11 12 13 13 12 19 25 27 26 27 27 27 29 30 33 32 32 30 30 30 29 30 30 31 34 32 29 27 31 30 29 27 29 31 32 33 34 31 29 29
10 9 8 8 8 9 10 12 14 15 16 14 22 25 26 26 27 28 29 29 30 30 31 31 31 31 30 28 28 29 31 32 31 29 30 28 28 29 30 32 33 33 34 34 32 32 31
10 10 9 8 8 9 10 12 15 17 18 16 21 22 24 24 27 28 28 28 30 30 30 30 30 32 31 28 28 28 30 30 26 28 27 26 26 24 26 30 32 32 34 34 34 34 33
10 10 10 9 8 9 10 12 14 17 19 18 22 22 21 23 26 27 28 29 31 30 30 31 31 29 29 31 31 30 29 29 28 29 26 24 23 23 23 26 26 28 31 33 33 34 34
11 11 10 11 10 10 11 13 14 14 13 12 18 19 20 22 24 26 27 29 29 29 28 30 29 27 29 30 30 29 29 29 28 27 25 22 21 21 23 25 25 29 31 30 32 34 34
12 11 11 12 11 13 13 13 14 14 14 13 16 18 19 20 23 24 26 26 26 26 27 28 30 29 29 29 27 26 26 27 28 27 25 24 21 22 23 23 26 29 31 31 29 29 31
12 13 13 13 13 13 13 13 14 14 14 15 16 18 18 19 22 23 23 25 24 25 26 28 29 30 29 26 26 24 24 26 27 28 26 23 20 22 23 22 23 27 31 29 29 27 31
12 12 12 12 13 13 13 13 13 13 13 13 16 17 18 17 21 22 21 22 23 23 23 25 26 26 29 25 25 24 25 27 24 23 24 23 23 22 22 22 25 24 23 28 26 26 24
12 12 12 12 12 12 12 12 10 10 11 12 15 17 17 17 18 20 23 20 21 22 22 23 23 25 25 25 25 25 25 22 23 22 23 23 23 23 23 23 23 22 24 23 22 23 23
12 11 11 12 12 12 11 10 8 8 8 9 11 15 14 16 17 18 18 19 19 20 21 22 22 22 24 23 23 24 24 21 22 22 22 20 22 20 20 20 22 20 21 21 22 21 21

GFSGBSN_925_temp_285.txt.gz
Temp
9 9 9 9 9 9 9 9 9 9 9 9 10 11 13 15 16 17 18 19 19 20 21 22 22 22 23 23 25 32 32 32 30 30 30 30 30 30 31 31 32 30 32 33 32 32 32
9 9 9 9 9 9 9 9 9 9 10 10 11 12 14 15 16 17 19 19 20 21 21 22 22 21 20 25 31 31 31 30 30 30 30 30 30 30 31 31 31 33 33 33 33 32 32
9 9 9 9 9 9 9 9 9 9 10 10 11 12 14 16 17 18 19 20 21 21 21 21 21 20 20 24 30 30 30 31 31 31 30 31 31 32 31 31 33 33 33 33 32 31 31
9 9 9 9 9 9 9 9 9 9 10 10 11 13 15 16 17 19 20 21 22 22 22 21 20 19 20 29 29 31 32 32 32 31 31 33 32 31 30 31 31 31 31 30 31 31 32
9 9 9 8 9 9 9 9 9 9 10 10 12 14 16 17 18 20 21 22 23 22 21 20 19 20 22 29 28 33 32 32 33 33 33 33 31 30 30 30 28 28 30 31 32 32 31
8 9 8 9 9 9 9 9 9 9 9 10 12 14 16 18 18 19 22 23 22 22 21 19 19 21 25 29 30 32 33 33 32 31 31 32 26 28 25 26 27 29 29 30 30 34 33
8 9 9 8 8 8 8 8 9 9 9 11 13 15 17 18 19 21 23 22 19 20 21 24 24 23 25 28 30 31 32 31 31 29 29 28 28 27 28 28 30 30 30 30 31 33 33
8 9 8 8 8 8 8 9 9 9 10 11 13 15 17 19 20 21 20 19 23 23 20 22 22 23 25 27 27 28 30 30 29 28 28 27 26 28 29 30 30 30 30 30 31 33 32
8 8 8 8 8 8 8 9 9 10 11 12 14 16 18 19 21 20 19 22 22 23 20 22 23 24 25 26 26 27 29 28 29 28 28 26 28 30 30 29 30 30 29 30 31 32 32
8 8 8 8 8 8 9 9 10 11 13 14 16 17 18 20 19 19 20 22 24 23 19 24 25 26 27 28 28 29 31 30 29 28 27 27 28 30 30 29 29 28 31 31 31 31 29
8 8 8 8 8 9 9 9 10 12 14 15 16 17 18 19 18 17 23 24 25 24 25 28 27 29 27 28 30 31 30 30 28 29 27 27 31 30 30 30 30 29 31 30 31 30 29
8 8 8 8 8 8 8 9 10 13 15 16 17 18 19 18 17 22 23 25 25 21 27 29 29 29 28 28 29 30 31 31 29 28 28 27 29 30 29 31 30 31 31 28 25 25 26
8 8 8 8 8 8 8 10 11 14 16 17 19 18 18 18 19 22 23 21 20 23 27 29 30 29 28 29 29 29 30 29 27 26 26 27 28 29 30 30 30 31 25 25 27 25 26
8 8 8 8 8 9 9 11 13 15 17 19 20 20 20 21 22 22 23 20 24 27 26 28 28 27 28 28 29 28 28 26 27 26 22 26 26 28 29 29 30 28 25 24 28 26 26
8 8 8 8 8 9 10 12 14 16 18 20 20 20 19 22 23 21 18 20 22 24 28 27 27 25 27 27 29 28 27 26 27 25 27 23 26 29 30 30 30 30 28 25 24 22 24
8 8 8 8 8 9 11 13 15 17 18 19 19 19 20 23 23 21 18 19 21 24 27 28 27 27 27 27 27 26 26 28 28 26 27 27 27 28 31 31 30 30 28 27 22 28 28
8 8 8 8 8 9 11 13 15 18 19 19 19 19 22 22 23 17 19 18 22 25 28 28 27 28 27 27 27 27 28 29 30 30 25 25 26 29 32 30 29 28 27 24 23 22 24
8 8 8 9 9 10 12 14 15 18 19 19 16 20 21 22 19 13 18 20 24 26 27 26 27 27 27 27 27 28 28 29 29 29 29 26 23 26 27 29 29 30 30 24 24 26 21
10 9 9 9 8 10 13 15 16 18 19 16 15 16 21 23 19 18 19 23 24 26 26 28 29 28 28 27 27 27 28 29 28 28 28 27 23 24 25 27 27 30 29 25 22 20 23
11 11 11 9 9 12 14 15 16 18 19 16 15 19 18 17 16 21 21 22 24 26 26 28 28 28 27 27 26 27 27 29 28 27 25 23 20 23 24 27 26 29 28 28 24 23 24
13 13 13 12 13 14 15 15 16 18 18 17 14 17 17 19 20 20 20 22 23 24 26 24 26 25 26 25 24 25 26 25 27 25 25 24 24 25 26 26 26 26 27 27 27 26 28
13 13 14 14 14 14 14 14 17 17 18 17 15 16 14 15 16 20 20 22 23 23 24 24 25 26 26 25 25 25 26 25 26 26 24 21 24 23 25 25 25 26 26 27 27 28 27
12 13 13 13 14 14 14 15 15 17 18 15 15 15 14 15 16 19 19 21 22 22 23 25 24 24 25 26 25 25 23 24 24 26 24 22 22 22 24 22 24 26 28 27 27 26 27
12 12 13 13 13 14 14 14 15 15 15 14 14 12 13 16 16 18 19 20 21 22 22 23 24 24 26 23 23 25 23 23 23 23 20 20 20 19 21 24 24 26 26 27 24 24 23
12 12 12 13 13 13 14 14 14 15 15 15 14 13 12 14 15 17 19 20 19 19 19 22 24 24 21 22 22 22 21 24 25 19 20 19 17 19 21 20 22 26 27 25 25 24 23
12 12 12 12 12 12 13 13 14 14 15 15 14 13 11 12 14 17 17 18 17 17 17 20 21 20 22 18 20 21 21 22 24 23 19 17 17 20 18 21 22 23 24 24 24 23 22
12 12 12 12 12 12 12 12 13 13 13 13 13 12 12 12 12 14 15 16 17 17 16 16 19 20 20 17 19 19 20 22 22 22 20 19 18 20 18 20 20 22 23 23 23 23 22
12 12 12 11 11 11 12 12 11 11 11 12 12 11 12 9 10 13 16 15 16 15 16 16 16 17 17 19 19 19 19 19 20 21 20 20 18 18 17 20 21 22 23 24 22 21 21
12 12 12 11 11 11 11 12 11 10 9 9 11 11 10 9 11 14 15 17 18 17 14 13 15 15 15 17 16 17 19 17 18 20 19 20 19 19 19 19 20 20 21 21 20 19 20

GFSGBSN_925_temp_291.txt.gz
Temp
9 9 9 9 8 8 9 9 9 9 9 9 9 10 11 15 17 19 19 20 20 20 21 21 22 22 23 27 29 29 30 29 28 29 31 31 31 32 32 32 32 31 33 34 34 33 33
9 8 8 8 8 8 9 9 9 9 9 9 9 10 12 15 17 19 19 20 20 21 21 22 22 22 22 29 27 27 28 28 27 28 30 31 32 32 32 32 32 33 33 33 34 34 33
9 8 8 8 8 8 8 8 9 9 9 9 10 12 14 16 18 18 19 20 21 22 22 22 21 21 23 29 27 27 27 28 29 29 31 30 31 32 33 33 32 33 33 34 33 32 33
8 8 8 8 8 8 8 8 9 8 9 10 11 13 15 16 18 19 20 20 22 22 22 22 20 20 26 27 27 28 28 29 29 29 30 30 30 32 32 33 33 32 33 34 34 32 32
8 9 8 8 8 8 8 8 8 8 9 11 13 15 16 17 18 19 21 21 22 22 22 20 20 21 28 28 28 29 29 30 28 28 29 30 31 31 32 33 33 32 33 32 34 33 32
8 8 8 8 8 8 8 8 9 9 10 11 13 15 17 18 19 20 21 20 20 20 19 19 18 23 28 29 28 28 29 30 31 31 31 31 31 32 32 33 33 32 32 32 32 34 33
8 8 8 8 8 8 8 9 9 10 12 13 14 16 18 19 20 21 19 19 22 22 19 26 26 26 26 27 27 28 29 30 31 32 32 30 32 32 34 33 32 32 31 32 33 34 33
8 8 8 8 8 8 8 8 9 10 13 14 16 17 19 19 20 21 20 22 21 21 24 22 22 23 24 25 28 29 29 32 31 31 30 31 32 32 31 31 32 32 32 33 33 33 33
8 8 8 8 8 8 8 9 9 11 13 15 16 18 19 20 21 21 20 20 19 19 23 25 24 25 26 26 29 30 31 30 30 30 30 31 32 30 31 31 32 33 32 32 33 33 32
8 8 8 8 8 8 8 8 10 12 14 15 17 19 20 20 19 19 20 20 20 20 27 28 27 27 26 27 30 29 30 31 29 31 29 31 30 31 31 32 32 32 32 32 32 33 33
8 8 8 8 8 8 8 9 11 13 14 16 17 19 20 20 19 20 21 21 21 21 29 29 28 27 26 29 30 30 28 31 31 30 30 31 30 30 31 32 32 33 32 32 31 32 32
8 8 8 8 8 9 9 10 12 14 15 16 18 19 20 19 18 21 21 22 22 27 27 29 28 28 29 29 30 30 31 30 29 30 29 30 29 31 32 31 32 31 32 30 29 31 33
8 8 8 8 8 8 10 11 13 15 16 18 19 20 19 18 21 21 22 23 27 28 28 29 29 29 29 29 30 31 31 31 31 29 30 30 31 31 31 31 30 31 32 32 32 32 33
8 8 8 8 8 9 11 13 14 16 17 18 19 20 20 20 20 21 22 26 27 27 28 28 27 28 29 29 29 29 29 30 27 29 29 30 31 30 31 32 32 31 33 32 31 32 33
8 8 8 8 8 11 13 14 15 17 18 19 19 19 19 19 21 20 25 26 27 26 27 28 28 29 29 29 29 29 29 30 30 30 31 30 30 30 30 31 32 30 32 32 31 27 31
8 8 8 8 11 12 13 14 16 18 19 19 19 19 18 20 20 20 25 23 25 25 26 27 29 28 29 29 30 29 29 30 30 29 28 31 30 31 31 31 30 32 31 32 30 30 31
11 10 9 10 13 13 14 15 16 18 20 19 19 23 19 20 20 24 25 24 24 26 25 27 28 29 28 29 29 29 29 30 30 28 28 29 30 31 31 32 33 31 31 29 31 30 32
13 13 13 14 14 14 14 15 17 19 21 20 20 24 19 20 24 18 24 23 22 26 26 27 27 28 29 29 29 29 30 30 28 29 30 28 30 30 32 30 29 31 32 33 32 30 29
12 13 13 14 14 14 15 16 17 19 19 19 21 21 20 19 25 24 23 24 24 26 26 27 28 28 28 29 28 28 28 29 28 29 29 29 29 30 31 30 29 31 30 30 30 29 28
12 13 13 13 14 14 15 16 17 19 19 18 21 24 22 20 19 23 23 25 25 25 26 25 26 27 28 28 26 28 28 29 28 28 23 27 28 30 31 30 28 30 30 29 32 32 30
12 12 12 13 14 14 15 17 18 19 19 18 18 20 18 23 22 22 22 22 24 25 25 25 27 26 26 27 27 27 28 29 29 25 26 28 29 27 28 28 28 29 30 29 30 31 31
12 12 12 12 13 14 15 16 18 19 20 16 20 21 17 19 18 21 20 23 24 24 24 26 26 26 26 26 26 27 27 27 28 28 28 27 28 26 28 28 28 28 29 29 30 29 30
12 12 12 12 12 13 14 15 16 18 19 16 12 13 18 15 20 21 22 22 23 22 24 24 24 24 25 26 25 26 26 27 28 26 27 27 28 27 27 28 27 28 29 30 31 31 32
11 11 12 12 12 12 13 14 15 16 17 15 12 13 19 21 19 21 21 21 21 22 22 23 23 23 24 23 25 24 25 25 25 26 26 26 25 26 27 26 26 30 28 28 29 31 31
11 11 11 12 12 12 12 13 14 15 15 15 13 14 17 21 18 20 20 20 20 20 20 21 23 23 22 23 25 25 26 26 27 25 25 25 26 26 26 27 28 28 29 28 28 30 30
11 11 11 11 12 12 12 12 13 14 14 13 12 12 15 18 20 19 19 19 20 20 21 21 21 21 22 23 24 24 25 26 26 24 21 22 22 25 24 25 25 28 30 27 28 28 29
12 12 12 11 11 11 11 11 12 13 13 12 11 12 13 17 18 17 19 20 19 18 20 18 19 21 21 23 24 24 25 24 25 25 23 23 23 24 25 25 26 28 27 26 26 28 26
12 12 12 11 11 11 11 11 11 12 12 11 10 10 11 15 16 15 17 18 18 18 20 18 20 19 20 21 22 24 22 24 23 25 24 25 24 25 23 24 24 27 25 26 28 26 26
12 12 12 11 11 11 11 10 10 9 8 8 9 9 9 11 15 12 13 15 17 18 19 17 18 17 20 20 20 20 22 20 22 24 21 24 26 26 25 27 25 25 27 25 25 25 25